939  
ASUS43 KLMK 182010  
RWRKY  
KENTUCKY REGIONAL WEATHER ROUNDUP  
NATIONAL WEATHER SERVICE LOUISVILLE KY  
400 PM EDT WED JUL 18 2018  
 
NOTE "FAIR" INDICATES FEW OR NO CLOUDS BELOW 12,000 FEET  
WITH NO SIGNIFICANT WEATHER AND/OR S TO VISIBILITY
.  
 
KYZ001>023-026-027-061>063-070>075-182100-  
WESTERN AND SOUTH CENTRAL KENTUCKY  
 
CITY SKY/WX TMP DP RH WIND PRES REMARKS
 
PADUCAH FAIR 88 66 48 E10 29.99F HX 90  
HENDERSON FAIR 85 65 51 NE6 30.03F  
OWENSBORO FAIR 85 64 49 NE6 30.02F  
HOPKINSVILLE FAIR 86 63 46 NE7 30.00F  
BOWLING GREEN FAIR 87 60 40 VRB5 30.01F  
GLASGOW FAIR 87 59 38 N3 30.02F  

 
 
KYZ024-025-028>034-038-045-046-053-182100-  
NORTH CENTRAL KENTUCKY  
 
CITY SKY/WX TMP DP RH WIND PRES REMARKS
 
LOUISVILLE/SDF FAIR 87 56 34 NW7 30.01F  
LOUISVILLE/LOU FAIR 85 58 39 N6 30.02F  
FORT KNOX FAIR 83 62 48 NW5 30.03F  

 
 
KYZ035>037-039>044-047>052-055>060-089>105-182100-  
NORTHEAST KENTUCKY  
 
CITY SKY/WX TMP DP RH WIND PRES REMARKS
 
LEXINGTON FAIR 86 58 38 E5 30.04F  
COVINGTON FAIR 85 49 28 VRB6 30.03F  
FRANKFORT PTSUNNY 85 59 41 MISG 30.02F  

 
 
KYZ054-064>069-076>088-106>120-182100-  
SOUTHEAST KENTUCKY  
 
CITY SKY/WX TMP DP RH WIND PRES REMARKS
 
JACKSON FAIR 81 57 43 CALM 30.05F  
LONDON FAIR 82 61 48 VRB5 30.04F  
SOMERSET FAIR 82 57 42 NE3 30.04F  
MIDDLESBORO FAIR 85 60 42 NW6 30.03F  
MONTICELLO FAIR 85 61 44 N12G17 30.04F  

 
 
 
 
CLICK HERE TO GO TO PREVIOUS BULLETINS.

The Nexlab KY Page Main Text Page